| time (UTC) | temp F | wind direction | speed MPH | gust MPH | rain 1hr in | rain 24hr in | rain mn in | humidity % | barometer mb |
| 20260507145742 | 65 | 134 | 5.0 | 6.0 | 0.00 | 0.00 | 0.00 | 69 | 1011.5 |
| 20260507145242 | 65 | 141 | 8.0 | 11.0 | 0.00 | 0.00 | 0.00 | 69 | 1011.5 |
| 20260507144742 | 65 | 164 | 12.0 | 13.0 | 0.00 | 0.00 | 0.00 | 69 | 1011.5 |
| 20260507144242 | 66 | 144 | 10.0 | 12.0 | 0.00 | 0.00 | 0.00 | 67 | 1011.5 |
| 20260507143742 | 67 | 134 | 15.0 | 15.0 | 0.00 | 0.00 | 0.00 | 65 | 1011.5 |
| 20260507143242 | 67 | 181 | 4.0 | 6.0 | 0.00 | 0.00 | 0.00 | 65 | 1011.5 |
| 20260507142742 | 67 | 144 | 4.0 | 7.0 | 0.00 | 0.00 | 0.00 | 64 | 1011.5 |
| 20260507142242 | 67 | 153 | 6.0 | 8.0 | 0.00 | 0.00 | 0.00 | 62 | 1011.5 |
| 20260507141742 | 68 | 141 | 6.0 | 6.0 | 0.00 | 0.00 | 0.00 | 60 | 1011.5 |
| 20260507141242 | 68 | 164 | 6.0 | 10.0 | 0.00 | 0.00 | 0.00 | 58 | 1011.5 |
| 20260507140742 | 69 | 167 | 8.0 | 8.0 | 0.00 | 0.00 | 0.00 | 55 | 1011.5 |
| 20260507140242 | 69 | 309 | 1.0 | 1.0 | 0.00 | 0.00 | 0.00 | 54 | 1011.5 |
| 20260507135742 | 69 | 294 | 1.0 | 1.0 | 0.00 | 0.00 | 0.00 | 55 | 1011.5 |
| 20260507135242 | 69 | 320 | 1.0 | 3.0 | 0.00 | 0.00 | 0.00 | 56 | 1011.5 |
| 20260507134742 | 69 | 318 | 2.0 | 3.0 | 0.00 | 0.00 | 0.00 | 55 | 1011.5 |
| 20260507134242 | 69 | 281 | 6.0 | 8.0 | 0.00 | 0.00 | 0.00 | 55 | 1011.5 |
| 20260507133742 | 70 | 233 | 6.0 | 8.0 | 0.00 | 0.00 | 0.00 | 54 | 1011.5 |
| 20260507133242 | 71 | 214 | 4.0 | 7.0 | 0.00 | 0.00 | 0.00 | 52 | 1011.5 |
| 20260507132742 | 71 | 272 | 5.0 | 6.0 | 0.00 | 0.00 | 0.00 | 53 | 1011.5 |
| 20260507132242 | 71 | 330 | 3.0 | 3.0 | 0.00 | 0.00 | 0.00 | 51 | 1011.5 |
| 20260507131742 | 71 | 322 | 6.0 | 8.0 | 0.00 | 0.00 | 0.00 | 51 | 1011.5 |
| 20260507131242 | 72 | 307 | 2.0 | 3.0 | 0.00 | 0.00 | 0.00 | 50 | 1011.5 |
| 20260507130742 | 72 | 337 | 5.0 | 7.0 | 0.00 | 0.00 | 0.00 | 49 | 1011.5 |
| 20260507130242 | 73 | 329 | 6.0 | 6.0 | 0.00 | 0.00 | 0.00 | 50 | 1011.5 |
| 20260507125742 | 73 | 311 | 0.0 | 1.0 | 0.00 | 0.00 | 0.00 | 51 | 1011.5 |
| 20260507125242 | 71 | 333 | 1.0 | 3.0 | 0.00 | 0.00 | 0.00 | 53 | 1011.5 |
| 20260507124742 | 70 | 324 | 4.0 | 4.0 | 0.00 | 0.00 | 0.00 | 52 | 1011.5 |
| 20260507124242 | 70 | 324 | 4.0 | 6.0 | 0.00 | 0.00 | 0.00 | 53 | 1011.5 |
| 20260507123742 | 69 | 320 | 6.0 | 10.0 | 0.00 | 0.00 | 0.00 | 53 | 1011.5 |
| 20260507123242 | 70 | 305 | 3.0 | 4.0 | 0.00 | 0.00 | 0.00 | 53 | 1011.5 |
| 20260507122742 | 70 | 271 | 4.0 | 5.0 | 0.00 | 0.00 | 0.00 | 51 | 1011.5 |
| 20260507122242 | 70 | 251 | 5.0 | 5.0 | 0.00 | 0.00 | 0.00 | 52 | 1011.9 |
| 20260507121742 | 71 | 318 | 2.0 | 4.0 | 0.00 | 0.00 | 0.00 | 53 | 1011.9 |
| 20260507121242 | 71 | 197 | 3.0 | 6.0 | 0.00 | 0.00 | 0.00 | 50 | 1011.5 |
| 20260507120742 | 71 | 285 | 7.0 | 12.0 | 0.00 | 0.00 | 0.00 | 52 | 1011.5 |
| 20260507120242 | 71 | 303 | 4.0 | 5.0 | 0.00 | 0.00 | 0.00 | 51 | 1011.5 |
| 20260507115742 | 71 | 331 | 2.0 | 9.0 | 0.00 | 0.00 | 0.00 | 50 | 1011.5 |
| 20260507115242 | 71 | 288 | 8.0 | 10.0 | 0.00 | 0.00 | 0.00 | 51 | 1011.5 |
| 20260507114742 | 70 | 265 | 4.0 | 6.0 | 0.00 | 0.00 | 0.00 | 52 | 1011.9 |
| 20260507114242 | 71 | 323 | 6.0 | 9.0 | 0.00 | 0.00 | 0.00 | 51 | 1011.9 |
| 20260507113742 | 71 | 300 | 3.0 | 5.0 | 0.00 | 0.00 | 0.00 | 54 | 1011.9 |
| 20260507113242 | 70 | 288 | 8.0 | 10.0 | 0.00 | 0.00 | 0.00 | 53 | 1011.9 |
| 20260507112742 | 70 | 330 | 7.0 | 9.0 | 0.00 | 0.00 | 0.00 | 53 | 1011.9 |
| 20260507112242 | 70 | 305 | 6.0 | 7.0 | 0.00 | 0.00 | 0.00 | 53 | 1011.9 |
| 20260507111742 | 69 | 202 | 4.0 | 5.0 | 0.00 | 0.00 | 0.00 | 55 | 1011.9 |
| 20260507111242 | 69 | 228 | 5.0 | 7.0 | 0.00 | 0.00 | 0.00 | 56 | 1011.9 |
| 20260507110742 | 69 | 329 | 9.0 | 10.0 | 0.00 | 0.00 | 0.00 | 56 | 1011.9 |
| 20260507110242 | 69 | 287 | 11.0 | 12.0 | 0.00 | 0.00 | 0.00 | 56 | 1011.9 |
| 20260507105742 | 69 | 317 | 2.0 | 5.0 | 0.00 | 0.00 | 0.00 | 57 | 1011.9 |
| 20260507105242 | 69 | 294 | 5.0 | 5.0 | 0.00 | 0.00 | 0.00 | 57 | 1011.9 |
| 20260507104742 | 69 | 281 | 7.0 | 7.0 | 0.00 | 0.00 | 0.00 | 59 | 1011.9 |
| 20260507104242 | 69 | 312 | 3.0 | 7.0 | 0.00 | 0.00 | 0.00 | 59 | 1011.9 |
| 20260507103905 | 69 | 298 | 4.0 | 8.0 | 0.00 | 0.00 | 0.00 | 58 | 1011.5 |
| 20260507103438 | 69 | 298 | 4.0 | 8.0 | 0.00 | 0.00 | 0.00 | 58 | 1011.5 |
| 20260507102938 | 69 | 298 | 6.0 | 9.0 | 0.00 | 0.00 | 0.00 | 59 | 1011.5 |
| 20260507102438 | 69 | 310 | 3.0 | 6.0 | 0.00 | 0.00 | 0.00 | 61 | 1011.5 |
| 20260507101938 | 69 | 242 | 7.0 | 10.0 | 0.00 | 0.00 | 0.00 | 60 | 1011.5 |
| 20260507101438 | 69 | 317 | 8.0 | 8.0 | 0.00 | 0.00 | 0.00 | 57 | 1011.5 |
| 20260507100938 | 69 | 289 | 13.0 | 13.0 | 0.00 | 0.00 | 0.00 | 57 | 1011.5 |
| 20260507100438 | 69 | 316 | 9.0 | 11.0 | 0.00 | 0.00 | 0.00 | 57 | 1011.5 |
| 20260507095938 | 69 | 278 | 2.0 | 6.0 | 0.00 | 0.00 | 0.00 | 62 | 1011.5 |
| 20260507095438 | 69 | 314 | 6.0 | 8.0 | 0.00 | 0.00 | 0.00 | 62 | 1011.5 |
| 20260507094938 | 69 | 278 | 7.0 | 12.0 | 0.00 | 0.00 | 0.00 | 60 | 1011.5 |
| 20260507094438 | 68 | 266 | 6.0 | 10.0 | 0.00 | 0.00 | 0.00 | 61 | 1011.5 |
| 20260507093938 | 68 | 331 | 6.0 | 10.0 | 0.00 | 0.00 | 0.00 | 63 | 1011.5 |
| 20260507090938 | 66 | 314 | 13.0 | 13.0 | 0.00 | 0.00 | 0.00 | 66 | 1011.2 |
| 20260507090438 | 66 | 294 | 6.0 | 13.0 | 0.00 | 0.00 | 0.00 | 66 | 1011.2 |
| 20260507085938 | 67 | 320 | 4.0 | 4.0 | 0.00 | 0.00 | 0.00 | 65 | 1011.2 |
| 20260507085438 | 67 | 315 | 11.0 | 11.0 | 0.00 | 0.00 | 0.00 | 63 | 1011.2 |
| 20260507084938 | 68 | 275 | 4.0 | 6.0 | 0.00 | 0.00 | 0.00 | 63 | 1011.2 |
| 20260507084438 | 68 | 301 | 13.0 | 19.0 | 0.00 | 0.00 | 0.00 | 62 | 1010.8 |
| 20260507083938 | 67 | 271 | 5.0 | 10.0 | 0.00 | 0.00 | 0.00 | 64 | 1010.8 |
| 20260507083438 | 67 | 271 | 4.0 | 6.0 | 0.00 | 0.00 | 0.00 | 65 | 1010.8 |
| 20260507082938 | 66 | 267 | 6.0 | 8.0 | 0.00 | 0.00 | 0.00 | 68 | 1010.8 |
| 20260507082438 | 65 | 279 | 9.0 | 13.0 | 0.00 | 0.00 | 0.00 | 67 | 1010.8 |
| 20260507081938 | 65 | 277 | 4.0 | 11.0 | 0.00 | 0.00 | 0.00 | 67 | 1010.8 |
| 20260507081438 | 65 | 333 | 12.0 | 15.0 | 0.00 | 0.00 | 0.00 | 67 | 1010.8 |
| 20260507080938 | 65 | 315 | 6.0 | 7.0 | 0.00 | 0.00 | 0.00 | 68 | 1010.5 |
| 20260507080438 | 65 | 280 | 9.0 | 13.0 | 0.00 | 0.00 | 0.00 | 68 | 1010.5 |
| 20260507075938 | 65 | 314 | 9.0 | 11.0 | 0.00 | 0.00 | 0.00 | 67 | 1010.5 |
| 20260507075438 | 65 | 281 | 8.0 | 12.0 | 0.00 | 0.00 | 0.00 | 68 | 1010.5 |
| 20260507074938 | 65 | 270 | 10.0 | 22.0 | 0.00 | 0.00 | 0.00 | 67 | 1010.5 |
| 20260507074438 | 66 | 279 | 4.0 | 6.0 | 0.00 | 0.00 | 0.00 | 67 | 1009.8 |
| 20260507073938 | 67 | 199 | 6.0 | 7.0 | 0.00 | 0.00 | 0.00 | 66 | 1009.8 |
| 20260507073438 | 66 | 251 | 7.0 | 10.0 | 0.00 | 0.00 | 0.00 | 67 | 1009.8 |
| 20260507072938 | 65 | 232 | 4.0 | 4.0 | 0.00 | 0.00 | 0.00 | 68 | 1009.8 |
| 20260507072438 | 65 | 270 | 6.0 | 10.0 | 0.00 | 0.00 | 0.00 | 68 | 1009.5 |
| 20260507071938 | 65 | 207 | 10.0 | 10.0 | 0.00 | 0.00 | 0.00 | 67 | 1009.5 |
| 20260507071438 | 65 | 296 | 7.0 | 7.0 | 0.00 | 0.00 | 0.00 | 68 | 1009.5 |
| 20260507070938 | 65 | 222 | 14.0 | 22.0 | 0.00 | 0.00 | 0.00 | 67 | 1009.5 |
| 20260507070438 | 65 | 273 | 6.0 | 10.0 | 0.00 | 0.00 | 0.00 | 68 | 1009.5 |
| 20260507065938 | 64 | 275 | 7.0 | 11.0 | 0.00 | 0.00 | 0.00 | 68 | 1009.5 |
| 20260507065438 | 64 | 235 | 13.0 | 13.0 | 0.00 | 0.00 | 0.00 | 68 | 1009.5 |
| 20260507064938 | 64 | 220 | 7.0 | 9.0 | 0.00 | 0.00 | 0.00 | 70 | 1009.5 |
| 20260507064438 | 64 | 265 | 7.0 | 7.0 | 0.00 | 0.00 | 0.00 | 69 | 1009.5 |
| 20260507063938 | 64 | 311 | 4.0 | 5.0 | 0.00 | 0.00 | 0.00 | 70 | 1009.5 |
| 20260507063438 | 63 | 271 | 1.0 | 6.0 | 0.00 | 0.00 | 0.00 | 71 | 1009.5 |
| 20260507062938 | 63 | 306 | 3.0 | 10.0 | 0.00 | 0.00 | 0.00 | 71 | 1009.5 |
| 20260507062438 | 63 | 178 | 7.0 | 7.0 | 0.00 | 0.00 | 0.00 | 70 | 1009.5 |
| 20260507061938 | 63 | 312 | 4.0 | 6.0 | 0.00 | 0.00 | 0.00 | 70 | 1009.5 |
| 20260507061438 | 63 | 253 | 3.0 | 3.0 | 0.00 | 0.00 | 0.00 | 71 | 1009.5 |
| 20260507060938 | 63 | 236 | 4.0 | 5.0 | 0.00 | 0.00 | 0.00 | 71 | 1009.5 |
| 20260507060438 | 63 | 318 | 5.0 | 8.0 | 0.00 | 0.00 | 0.00 | 70 | 1009.5 |
| 20260507055938 | 63 | 205 | 3.0 | 3.0 | 0.00 | 0.00 | 0.00 | 70 | 1009.1 |
| 20260507055438 | 63 | 262 | 4.0 | 6.0 | 0.00 | 0.00 | 0.00 | 69 | 1009.1 |
| 20260507054938 | 63 | 223 | 2.0 | 5.0 | 0.00 | 0.00 | 0.00 | 70 | 1009.1 |
| 20260507054438 | 63 | 327 | 1.0 | 3.0 | 0.00 | 0.00 | 0.00 | 70 | 1009.1 |
| 20260507053938 | 63 | 290 | 7.0 | 7.0 | 0.00 | 0.00 | 0.00 | 69 | 1009.1 |
| 20260507053438 | 62 | 296 | 4.0 | 4.0 | 0.00 | 0.00 | 0.00 | 70 | 1009.1 |
| 20260507052938 | 62 | 311 | 0.0 | 1.0 | 0.00 | 0.00 | 0.00 | 72 | 1009.1 |
| 20260507052438 | 61 | 270 | 4.0 | 8.0 | 0.00 | 0.00 | 0.00 | 73 | 1008.8 |
| 20260507051938 | 61 | 327 | 0.0 | 0.0 | 0.00 | 0.00 | 0.00 | 79 | 1008.8 |
| 20260507051438 | 61 | 327 | 0.0 | 0.0 | 0.00 | 0.00 | 0.00 | 79 | 1008.8 |
| 20260507050938 | 61 | 326 | 0.0 | 0.0 | 0.00 | 0.00 | 0.00 | 79 | 1008.8 |
| 20260507050438 | 61 | 326 | 0.0 | 0.0 | 0.00 | 0.00 | 0.00 | 77 | 1008.8 |
| 20260507045938 | 61 | 325 | 0.0 | 0.0 | 0.00 | 0.00 | 0.00 | 78 | 1008.8 |
| 20260507045438 | 61 | 325 | 0.0 | 0.0 | 0.00 | 0.00 | 0.00 | 77 | 1008.8 |
| 20260507044938 | 61 | 317 | 0.0 | 1.0 | 0.00 | 0.00 | 0.00 | 73 | 1008.8 |
| 20260507044438 | 61 | 325 | 0.0 | 0.0 | 0.00 | 0.00 | 0.00 | 74 | 1008.8 |
| 20260507043938 | 61 | 321 | 0.0 | 0.0 | 0.00 | 0.00 | 0.00 | 72 | 1008.8 |
| 20260507043438 | 62 | 316 | 0.0 | 1.0 | 0.00 | 0.00 | 0.00 | 71 | 1008.8 |
| 20260507042938 | 62 | 321 | 0.0 | 0.0 | 0.00 | 0.00 | 0.00 | 71 | 1008.8 |
| 20260507042438 | 62 | 319 | 0.0 | 0.0 | 0.00 | 0.00 | 0.00 | 71 | 1008.5 |
| 20260507041938 | 62 | 313 | 1.0 | 4.0 | 0.00 | 0.00 | 0.00 | 71 | 1008.5 |
| 20260507041438 | 61 | 230 | 4.0 | 4.0 | 0.00 | 0.00 | 0.00 | 71 | 1008.5 |
| 20260507040938 | 61 | 339 | 0.0 | 0.0 | 0.00 | 0.00 | 0.00 | 75 | 1008.5 |
| 20260507040443 | 60 | 327 | 1.0 | 1.0 | 0.00 | 0.00 | 0.00 | 76 | 1008.5 |
| 20260507035938 | 60 | 334 | 1.0 | 2.0 | 0.00 | 0.00 | 0.00 | 80 | 1008.5 |
| 20260507035438 | 60 | 329 | 1.0 | 1.0 | 0.00 | 0.00 | 0.00 | 79 | 1008.5 |
| 20260507034938 | 60 | 307 | 1.0 | 1.0 | 0.00 | 0.00 | 0.00 | 82 | 1008.5 |
| 20260507034438 | 60 | 338 | 1.0 | 1.0 | 0.00 | 0.00 | 0.00 | 80 | 1008.5 |
| 20260507033938 | 60 | 334 | 0.0 | 0.0 | 0.00 | 0.00 | 0.00 | 80 | 1008.5 |
| 20260507033438 | 60 | 344 | 0.0 | 1.0 | 0.00 | 0.00 | 0.00 | 81 | 1008.5 |
| 20260507032938 | 60 | 346 | 1.0 | 1.0 | 0.00 | 0.00 | 0.00 | 78 | 1008.5 |
| 20260507032438 | 60 | 329 | 1.0 | 2.0 | 0.00 | 0.00 | 0.00 | 79 | 1008.5 |
| 20260507031938 | 60 | 312 | 1.0 | 1.0 | 0.00 | 0.00 | 0.00 | 77 | 1008.5 |
| 20260507031438 | 61 | 331 | 0.0 | 1.0 | 0.00 | 0.00 | 0.00 | 73 | 1008.5 |
| 20260507030938 | 61 | 311 | 0.0 | 0.0 | 0.00 | 0.00 | 0.00 | 72 | 1008.5 |
| 20260507030438 | 61 | 314 | 1.0 | 1.0 | 0.00 | 0.00 | 0.00 | 71 | 1008.5 |
| 20260507025938 | 61 | 258 | 2.0 | 3.0 | 0.00 | 0.00 | 0.00 | 71 | 1008.5 |
| 20260507025438 | 61 | 156 | 7.0 | 7.0 | 0.00 | 0.00 | 0.00 | 72 | 1008.5 |
| 20260507024938 | 60 | 176 | 2.0 | 5.0 | 0.00 | 0.00 | 0.00 | 79 | 1008.5 |
| 20260507024438 | 60 | 306 | 1.0 | 1.0 | 0.00 | 0.00 | 0.00 | 79 | 1008.1 |
| 20260507023938 | 59 | 317 | 1.0 | 1.0 | 0.00 | 0.00 | 0.00 | 78 | 1008.1 |
| 20260507023438 | 59 | 332 | 1.0 | 1.0 | 0.00 | 0.00 | 0.00 | 81 | 1008.1 |
| 20260507022938 | 59 | 323 | 0.0 | 0.0 | 0.00 | 0.00 | 0.00 | 79 | 1008.1 |
| 20260507022438 | 59 | 331 | 0.0 | 0.0 | 0.00 | 0.00 | 0.00 | 79 | 1008.1 |
| 20260507021938 | 58 | 332 | 0.0 | 1.0 | 0.00 | 0.00 | 0.00 | 80 | 1008.1 |
| 20260507021438 | 58 | 326 | 0.0 | 0.0 | 0.00 | 0.00 | 0.00 | 81 | 1008.1 |
| 20260507020938 | 59 | 328 | 1.0 | 1.0 | 0.00 | 0.00 | 0.00 | 81 | 1008.1 |
| 20260507020438 | 59 | 322 | 0.0 | 0.0 | 0.00 | 0.00 | 0.00 | 77 | 1008.1 |
| 20260507015939 | 59 | 338 | 0.0 | 1.0 | 0.00 | 0.00 | 0.00 | 77 | 1008.1 |
| 20260507015438 | 59 | 318 | 0.0 | 1.0 | 0.00 | 0.00 | 0.00 | 76 | 1008.1 |
| 20260507014938 | 58 | 322 | 0.0 | 2.0 | 0.00 | 0.00 | 0.00 | 77 | 1008.1 |
| 20260507014439 | 56 | 313 | 0.0 | 1.0 | 0.00 | 0.00 | 0.00 | 83 | 1008.1 |
| 20260507013938 | 57 | 326 | 1.0 | 1.0 | 0.00 | 0.00 | 0.00 | 81 | 1008.1 |
| 20260507013438 | 57 | 331 | 0.0 | 0.0 | 0.00 | 0.00 | 0.00 | 80 | 1007.8 |
| 20260507012938 | 58 | 327 | 3.0 | 3.0 | 0.00 | 0.00 | 0.00 | 80 | 1007.8 |
| 20260507012438 | 56 | 334 | 0.0 | 1.0 | 0.00 | 0.00 | 0.00 | 84 | 1007.8 |
| 20260507011938 | 55 | 326 | 1.0 | 1.0 | 0.00 | 0.00 | 0.00 | 87 | 1007.8 |
| 20260507011438 | 56 | 327 | 1.0 | 1.0 | 0.00 | 0.00 | 0.00 | 88 | 1007.8 |
| 20260507010938 | 56 | 326 | 0.0 | 0.0 | 0.00 | 0.00 | 0.00 | 87 | 1007.8 |
| 20260507010438 | 56 | 326 | 0.0 | 0.0 | 0.00 | 0.00 | 0.00 | 84 | 1007.8 |
| 20260507005938 | 56 | 331 | 0.0 | 1.0 | 0.00 | 0.00 | 0.00 | 85 | 1007.8 |
| 20260507005438 | 56 | 338 | 0.0 | 0.0 | 0.00 | 0.00 | 0.00 | 83 | 1007.8 |
| 20260507004939 | 57 | 321 | 0.0 | 0.0 | 0.00 | 0.00 | 0.00 | 81 | 1007.8 |
| 20260507004438 | 57 | 332 | 0.0 | 0.0 | 0.00 | 0.00 | 0.00 | 85 | 1007.8 |
| 20260507003938 | 58 | 335 | 0.0 | 0.0 | 0.00 | 0.00 | 0.00 | 81 | 1007.8 |
| 20260507003438 | 58 | 352 | 0.0 | 0.0 | 0.00 | 0.00 | 0.00 | 80 | 1007.8 |
| 20260507002938 | 58 | 300 | 1.0 | 1.0 | 0.00 | 0.00 | 0.00 | 83 | 1007.8 |
| 20260507002438 | 58 | 342 | 0.0 | 0.0 | 0.00 | 0.00 | 0.00 | 81 | 1007.8 |
| 20260507001938 | 59 | 345 | 1.0 | 1.0 | 0.00 | 0.00 | 0.00 | 77 | 1007.8 |
| 20260507001438 | 60 | 307 | 1.0 | 2.0 | 0.00 | 0.00 | 0.00 | 74 | 1007.8 |
| 20260507000938 | 60 | 335 | 0.0 | 0.0 | 0.00 | 0.00 | 0.00 | 75 | 1007.8 |
| 20260507000438 | 61 | 337 | 1.0 | 1.0 | 0.00 | 0.00 | 0.00 | 73 | 1007.8 |
| 20260506235938 | 62 | 357 | 1.0 | 2.0 | 0.00 | 0.00 | 0.00 | 67 | 1007.8 |
| 20260506235438 | 64 | 134 | 7.0 | 8.0 | 0.00 | 0.00 | 0.00 | 63 | 1007.8 |
| 20260506234938 | 65 | 188 | 4.0 | 6.0 | 0.00 | 0.00 | 0.00 | 60 | 1007.8 |
| 20260506234438 | 65 | 200 | 6.0 | 9.0 | 0.00 | 0.00 | 0.00 | 61 | 1007.8 |
| 20260506233938 | 64 | 267 | 3.0 | 5.0 | 0.00 | 0.00 | 0.00 | 62 | 1007.8 |
| 20260506233438 | 64 | 245 | 5.0 | 5.0 | 0.00 | 0.00 | 0.00 | 63 | 1007.8 |
| 20260506232938 | 63 | 171 | 8.0 | 8.0 | 0.00 | 0.00 | 0.00 | 64 | 1007.8 |
| 20260506232438 | 61 | 310 | 1.0 | 6.0 | 0.00 | 0.00 | 0.00 | 69 | 1007.8 |
| 20260506231938 | 58 | 339 | 0.0 | 0.0 | 0.00 | 0.00 | 0.00 | 77 | 1007.8 |
| 20260506231438 | 58 | 313 | 1.0 | 1.0 | 0.00 | 0.00 | 0.00 | 79 | 1007.8 |
| 20260506230938 | 58 | 344 | 0.0 | 1.0 | 0.00 | 0.00 | 0.00 | 79 | 1007.8 |
| 20260506230438 | 58 | 88 | 3.0 | 8.0 | 0.00 | 0.00 | 0.00 | 79 | 1007.8 |
| 20260506225938 | 57 | 340 | 1.0 | 2.0 | 0.00 | 0.00 | 0.00 | 82 | 1007.8 |
| 20260506225438 | 57 | 308 | 1.0 | 1.0 | 0.00 | 0.00 | 0.00 | 84 | 1007.8 |
| 20260506224938 | 57 | 313 | 1.0 | 1.0 | 0.00 | 0.00 | 0.00 | 83 | 1007.8 |
| 20260506224438 | 56 | 326 | 1.0 | 1.0 | 0.00 | 0.00 | 0.00 | 82 | 1007.8 |
| 20260506223938 | 57 | 311 | 1.0 | 1.0 | 0.00 | 0.00 | 0.00 | 84 | 1007.8 |
| 20260506223438 | 57 | 323 | 0.0 | 0.0 | 0.00 | 0.00 | 0.00 | 82 | 1007.8 |
| 20260506222938 | 57 | 307 | 1.0 | 1.0 | 0.00 | 0.00 | 0.00 | 84 | 1007.8 |
| 20260506222438 | 57 | 339 | 1.0 | 1.0 | 0.00 | 0.00 | 0.00 | 85 | 1007.8 |
| 20260506221938 | 56 | 348 | 1.0 | 1.0 | 0.00 | 0.00 | 0.00 | 86 | 1007.8 |
| 20260506221438 | 56 | 341 | 0.0 | 0.0 | 0.00 | 0.00 | 0.00 | 84 | 1007.8 |
| 20260506220938 | 56 | 347 | 0.0 | 0.0 | 0.00 | 0.00 | 0.00 | 86 | 1007.8 |
| 20260506220438 | 56 | 344 | 1.0 | 1.0 | 0.00 | 0.00 | 0.00 | 87 | 1007.8 |
| 20260506215938 | 56 | 342 | 1.0 | 1.0 | 0.00 | 0.00 | 0.00 | 86 | 1007.8 |
| 20260506215438 | 56 | 343 | 0.0 | 0.0 | 0.00 | 0.00 | 0.00 | 85 | 1007.8 |
| 20260506214938 | 56 | 344 | 0.0 | 2.0 | 0.00 | 0.00 | 0.00 | 84 | 1007.8 |
| 20260506214438 | 57 | 337 | 0.0 | 0.0 | 0.00 | 0.00 | 0.00 | 83 | 1007.8 |
| 20260506213938 | 57 | 337 | 0.0 | 0.0 | 0.00 | 0.00 | 0.00 | 79 | 1007.8 |
| 20260506213438 | 57 | 325 | 0.0 | 0.0 | 0.00 | 0.00 | 0.00 | 81 | 1008.1 |
| 20260506212938 | 58 | 325 | 0.0 | 0.0 | 0.00 | 0.00 | 0.00 | 78 | 1008.1 |
| 20260506212438 | 58 | 326 | 0.0 | 1.0 | 0.00 | 0.00 | 0.00 | 77 | 1007.8 |
| 20260506211938 | 58 | 328 | 1.0 | 1.0 | 0.00 | 0.00 | 0.00 | 79 | 1007.8 |
| 20260506211438 | 57 | 329 | 0.0 | 0.0 | 0.00 | 0.00 | 0.00 | 82 | 1007.8 |
| 20260506210938 | 57 | 329 | 0.0 | 1.0 | 0.00 | 0.00 | 0.00 | 83 | 1007.8 |
| 20260506210438 | 56 | 336 | 0.0 | 0.0 | 0.00 | 0.00 | 0.00 | 85 | 1007.8 |
| 20260506205938 | 56 | 336 | 0.0 | 0.0 | 0.00 | 0.00 | 0.00 | 83 | 1007.8 |
| 20260506205438 | 57 | 347 | 1.0 | 1.0 | 0.00 | 0.00 | 0.00 | 80 | 1007.8 |
| 20260506204938 | 57 | 329 | 0.0 | 0.0 | 0.00 | 0.00 | 0.00 | 81 | 1007.8 |
| 20260506204438 | 57 | 337 | 0.0 | 0.0 | 0.00 | 0.00 | 0.00 | 81 | 1007.8 |
| 20260506203938 | 57 | 326 | 0.0 | 0.0 | 0.00 | 0.00 | 0.00 | 82 | 1007.8 |
| 20260506203438 | 57 | 326 | 0.0 | 0.0 | 0.00 | 0.00 | 0.00 | 80 | 1007.8 |
| 20260506202938 | 57 | 326 | 0.0 | 0.0 | 0.00 | 0.00 | 0.00 | 79 | 1007.8 |
| 20260506202438 | 57 | 325 | 0.0 | 0.0 | 0.00 | 0.00 | 0.00 | 77 | 1007.8 |
| 20260506201938 | 58 | 322 | 1.0 | 1.0 | 0.00 | 0.00 | 0.00 | 80 | 1007.8 |
| 20260506201438 | 57 | 341 | 0.0 | 0.0 | 0.00 | 0.00 | 0.00 | 79 | 1007.8 |
| 20260506200938 | 57 | 343 | 2.0 | 2.0 | 0.00 | 0.00 | 0.00 | 81 | 1007.8 |
| 20260506200438 | 57 | 339 | 0.0 | 0.0 | 0.00 | 0.00 | 0.00 | 84 | 1007.8 |
| 20260506195938 | 57 | 340 | 0.0 | 0.0 | 0.00 | 0.00 | 0.00 | 85 | 1007.8 |
| 20260506195438 | 57 | 339 | 0.0 | 0.0 | 0.00 | 0.00 | 0.00 | 83 | 1007.8 |
| 20260506194938 | 57 | 340 | 0.0 | 0.0 | 0.00 | 0.00 | 0.00 | 81 | 1007.8 |
| 20260506194438 | 57 | 340 | 0.0 | 0.0 | 0.00 | 0.00 | 0.00 | 82 | 1007.8 |
| 20260506193938 | 57 | 336 | 0.0 | 0.0 | 0.00 | 0.00 | 0.00 | 80 | 1007.8 |
| 20260506193438 | 57 | 339 | 0.0 | 0.0 | 0.00 | 0.00 | 0.00 | 78 | 1007.5 |
| 20260506192938 | 58 | 340 | 0.0 | 1.0 | 0.00 | 0.00 | 0.00 | 81 | 1007.5 |
| 20260506192438 | 58 | 336 | 0.0 | 0.0 | 0.00 | 0.00 | 0.00 | 75 | 1007.5 |
| 20260506191938 | 58 | 348 | 1.0 | 1.0 | 0.00 | 0.00 | 0.00 | 77 | 1007.5 |
| 20260506190438 | 59 | 334 | 0.0 | 0.0 | 0.00 | 0.00 | 0.00 | 74 | 1007.5 |
| 20260506185938 | 59 | 337 | 0.0 | 0.0 | 0.00 | 0.00 | 0.00 | 78 | 1007.5 |
| 20260506185438 | 60 | 339 | 1.0 | 1.0 | 0.00 | 0.00 | 0.00 | 74 | 1007.5 |
| 20260506184938 | 60 | 337 | 2.0 | 2.0 | 0.00 | 0.00 | 0.00 | 73 | 1007.5 |
| 20260506184438 | 61 | 336 | 0.0 | 0.0 | 0.00 | 0.00 | 0.00 | 75 | 1006.8 |
| 20260506183938 | 61 | 336 | 0.0 | 0.0 | 0.00 | 0.00 | 0.00 | 71 | 1006.8 |
| 20260506183438 | 62 | 336 | 0.0 | 0.0 | 0.00 | 0.00 | 0.00 | 73 | 1006.8 |
| 20260506182938 | 63 | 335 | 1.0 | 1.0 | 0.00 | 0.00 | 0.00 | 70 | 1006.8 |
| 20260506182438 | 63 | 329 | 0.0 | 0.0 | 0.00 | 0.00 | 0.00 | 70 | 1006.8 |
| 20260506181938 | 64 | 327 | 1.0 | 1.0 | 0.00 | 0.00 | 0.00 | 69 | 1006.4 |
| 20260506181438 | 65 | 331 | 0.0 | 0.0 | 0.00 | 0.00 | 0.00 | 63 | 1006.4 |
| 20260506180938 | 65 | 326 | 0.0 | 0.0 | 0.00 | 0.00 | 0.00 | 64 | 1006.4 |
| 20260506180438 | 67 | 325 | 0.0 | 0.0 | 0.00 | 0.00 | 0.00 | 58 | 1006.4 |
| 20260506175938 | 67 | 327 | 1.0 | 1.0 | 0.00 | 0.00 | 0.00 | 62 | 1006.4 |
| 20260506175438 | 68 | 336 | 0.0 | 1.0 | 0.00 | 0.00 | 0.00 | 55 | 1006.4 |
| 20260506174938 | 69 | 327 | 0.0 | 0.0 | 0.00 | 0.00 | 0.00 | 56 | 1006.4 |
| 20260506174438 | 69 | 326 | 0.0 | 0.0 | 0.00 | 0.00 | 0.00 | 54 | 1006.8 |
| 20260506173938 | 69 | 294 | 2.0 | 2.0 | 0.00 | 0.00 | 0.00 | 49 | 1006.8 |
| 20260506173438 | 69 | 336 | 0.0 | 1.0 | 0.00 | 0.00 | 0.00 | 49 | 1006.8 |
| 20260506172938 | 69 | 264 | 2.0 | 3.0 | 0.00 | 0.00 | 0.00 | 47 | 1006.8 |
| 20260506172438 | 69 | 290 | 2.0 | 2.0 | 0.00 | 0.00 | 0.00 | 47 | 1006.8 |
| 20260506171938 | 69 | 320 | 1.0 | 1.0 | 0.00 | 0.00 | 0.00 | 49 | 1006.8 |
| 20260506171438 | 69 | 341 | 0.0 | 0.0 | 0.00 | 0.00 | 0.00 | 49 | 1006.8 |
| 20260506170938 | 69 | 323 | 0.0 | 0.0 | 0.00 | 0.00 | 0.00 | 47 | 1006.8 |
| 20260506170438 | 70 | 317 | 1.0 | 1.0 | 0.00 | 0.00 | 0.00 | 47 | 1006.8 |
| 20260506165938 | 70 | 29 | 5.0 | 6.0 | 0.00 | 0.00 | 0.00 | 46 | 1006.4 |
| 20260506165438 | 70 | 218 | 4.0 | 5.0 | 0.00 | 0.00 | 0.00 | 47 | 1006.4 |
| 20260506164938 | 71 | 29 | 2.0 | 3.0 | 0.00 | 0.00 | 0.00 | 47 | 1006.4 |
| 20260506164438 | 71 | 320 | 3.0 | 5.0 | 0.00 | 0.00 | 0.00 | 43 | 1006.8 |
| 20260506163938 | 71 | 298 | 3.0 | 4.0 | 0.00 | 0.00 | 0.00 | 44 | 1006.8 |
| 20260506163438 | 71 | 287 | 5.0 | 6.0 | 0.00 | 0.00 | 0.00 | 42 | 1006.8 |
| 20260506162938 | 72 | 284 | 4.0 | 4.0 | 0.00 | 0.00 | 0.00 | 41 | 1006.8 |
| 20260506162438 | 73 | 299 | 3.0 | 3.0 | 0.00 | 0.00 | 0.00 | 41 | 1006.8 |
| 20260506161938 | 73 | 283 | 3.0 | 4.0 | 0.00 | 0.00 | 0.00 | 42 | 1006.8 |
| 20260506161438 | 73 | 292 | 8.0 | 11.0 | 0.00 | 0.00 | 0.00 | 39 | 1006.8 |
| 20260506160938 | 74 | 227 | 8.0 | 11.0 | 0.00 | 0.00 | 0.00 | 38 | 1006.4 |
| 20260506160438 | 76 | 237 | 3.0 | 3.0 | 0.00 | 0.00 | 0.00 | 37 | 1006.4 |
| 20260506155938 | 77 | 208 | 4.0 | 8.0 | 0.00 | 0.00 | 0.00 | 36 | 1006.8 |
| 20260506155438 | 79 | 302 | 4.0 | 6.0 | 0.00 | 0.00 | 0.00 | 35 | 1006.8 |
| 20260506154938 | 78 | 318 | 6.0 | 7.0 | 0.00 | 0.00 | 0.00 | 34 | 1006.8 |
| 20260506154438 | 78 | 296 | 3.0 | 6.0 | 0.00 | 0.00 | 0.00 | 34 | 1006.8 |
| 20260506153938 | 77 | 306 | 4.0 | 8.0 | 0.00 | 0.00 | 0.00 | 35 | 1006.8 |
| 20260506153438 | 78 | 293 | 9.0 | 13.0 | 0.00 | 0.00 | 0.00 | 33 | 1006.8 |
| 20260506152938 | 80 | 295 | 3.0 | 4.0 | 0.00 | 0.00 | 0.00 | 32 | 1006.8 |
| 20260506152438 | 81 | 318 | 1.0 | 1.0 | 0.00 | 0.00 | 0.00 | 32 | 1006.8 |
| 20260506151938 | 80 | 274 | 2.0 | 2.0 | 0.00 | 0.00 | 0.00 | 32 | 1006.8 |
| 20260506151438 | 80 | 226 | 3.0 | 4.0 | 0.00 | 0.00 | 0.00 | 32 | 1006.8 |
| 20260506150938 | 80 | 285 | 7.0 | 10.0 | 0.00 | 0.00 | 0.00 | 33 | 1007.5 |
| 20260506150438 | 80 | 265 | 5.0 | 7.0 | 0.00 | 0.00 | 0.00 | 33 | 1007.5 |